Total_Precipitation_Accumulation
0.02 0.01 0.00 0.00 0.01 0.02 0.00 0.00 0.00 0.01 0.00 0.00 0.01 0.12 0.24 0.31 0.24 0.06 0.00 0.00 0.00 0.00 0.00 0.00 0.00 0.00 0.00 0.00 0.00 0.00 0.00 0.00 0.02 0.02 0.00 0.00 0.00 0.02 0.00 0.00 0.01 0.00 0.00 0.00
0.01 0.00 0.00 0.00 0.00 0.01 0.00 0.00 0.00 0.00 0.00 0.02 0.06 0.14 0.18 0.21 0.08 0.01 0.00 0.00 0.00 0.00 0.00 0.00 0.00 0.00 0.00 0.00 0.00 0.00 0.00 0.00 0.00 0.01 0.00 0.00 0.00 0.00 0.00 0.00 0.00 0.00 0.00 0.00
0.01 0.00 0.00 0.00 0.00 0.00 0.00 0.00 0.00 0.00 0.00 0.01 0.17 0.36 0.31 0.17 0.01 0.00 0.00 0.00 0.00 0.00 0.00 0.00 0.00 0.00 0.00 0.00 0.00 0.00 0.00 0.00 0.00 0.00 0.00 0.00 0.00 0.00 0.00 0.00 0.00 0.00 0.00 0.00
0.01 0.00 0.00 0.00 0.00 0.00 0.00 0.00 0.00 0.00 0.00 0.00 0.04 0.12 0.09 0.01 0.00 0.00 0.00 0.00 0.00 0.00 0.00 0.00 0.00 0.00 0.00 0.00 0.00 0.00 0.00 0.00 0.00 0.00 0.00 0.00 0.00 0.00 0.00 0.00 0.00 0.00 0.00 0.00
0.00 0.00 0.00 0.00 0.00 0.00 0.00 0.00 0.01 0.01 0.00 0.00 0.02 0.04 0.01 0.00 0.00 0.00 0.00 0.00 0.00 0.00 0.00 0.00 0.00 0.00 0.00 0.00 0.00 0.00 0.00 0.00 0.00 0.00 0.00 0.00 0.00 0.00 0.00 0.00 0.00 0.00 0.00 0.00
0.01 0.00 0.00 0.00 0.00 0.00 0.00 0.01 0.01 0.01 0.00 0.03 0.09 0.06 0.01 0.00 0.01 0.01 0.00 0.00 0.00 0.00 0.00 0.00 0.00 0.00 0.00 0.00 0.00 0.00 0.00 0.00 0.00 0.00 0.00 0.00 0.00 0.00 0.00 0.00 0.00 0.00 0.00 0.00
0.01 0.00 0.00 0.00 0.00 0.00 0.00 0.01 0.01 0.01 0.00 0.00 0.00 0.00 0.00 0.00 0.00 0.01 0.00 0.00 0.00 0.00 0.00 0.00 0.00 0.00 0.00 0.00 0.00 0.00 0.00 0.00 0.00 0.00 0.00 0.00 0.00 0.00 0.00 0.00 0.00 0.00 0.00 0.00
0.01 0.00 0.00 0.00 0.00 0.00 0.00 0.01 0.02 0.03 0.01 0.00 0.00 0.00 0.00 0.00 0.00 0.00 0.00 0.00 0.00 0.00 0.00 0.00 0.00 0.00 0.00 0.00 0.00 0.00 0.00 0.00 0.00 0.01 0.00 0.00 0.00 0.00 0.00 0.00 0.00 0.00 0.00 0.00
0.01 0.00 0.00 0.00 0.00 0.00 0.00 0.00 0.01 0.03 0.03 0.00 0.00 0.00 0.00 0.00 0.00 0.00 0.00 0.00 0.00 0.00 0.01 0.02 0.00 0.00 0.00 0.01 0.01 0.00 0.00 0.00 0.01 0.00 0.00 0.00 0.00 0.00 0.00 0.00 0.04 0.00 0.00 0.00
0.01 0.00 0.00 0.01 0.00 0.00 0.00 0.00 0.00 0.02 0.03 0.00 0.00 0.00 0.00 0.00 0.00 0.00 0.00 0.00 0.00 0.00 0.01 0.02 0.01 0.01 0.00 0.00 0.00 0.01 0.02 0.03 0.04 0.01 0.00 0.00 0.00 0.00 0.00 0.03 0.04 0.00 0.00 0.00
0.01 0.01 0.01 0.01 0.01 0.00 0.00 0.00 0.00 0.00 0.01 0.00 0.00 0.00 0.00 0.00 0.01 0.01 0.00 0.01 0.00 0.00 0.01 0.02 0.01 0.01 0.00 0.00 0.00 0.00 0.00 0.01 0.02 0.03 0.01 0.00 0.00 0.00 0.00 0.01 0.00 0.00 0.00 0.00
0.01 0.01 0.01 0.01 0.01 0.01 0.00 0.00 0.00 0.01 0.02 0.00 0.00 0.00 0.00 0.00 0.00 0.00 0.00 0.01 0.00 0.01 0.01 0.01 0.01 0.00 0.00 0.00 0.00 0.00 0.00 0.00 0.00 0.00 0.00 0.00 0.00 0.00 0.00 0.00 0.00 0.00 0.00 0.00
0.03 0.03 0.03 0.01 0.01 0.01 0.01 0.00 0.00 0.02 0.04 0.00 0.00 0.00 0.00 0.00 0.00 0.00 0.00 0.01 0.02 0.03 0.01 0.03 0.01 0.00 0.00 0.00 0.00 0.00 0.00 0.00 0.00 0.00 0.00 0.00 0.00 0.00 0.00 0.00 0.00 0.00 0.00 0.00
0.05 0.06 0.06 0.04 0.02 0.02 0.02 0.02 0.02 0.06 0.07 0.04 0.01 0.01 0.01 0.00 0.00 0.00 0.00 0.00 0.00 0.00 0.00 0.03 0.02 0.01 0.00 0.00 0.00 0.00 0.00 0.00 0.00 0.00 0.00 0.00 0.00 0.00 0.00 0.00 0.00 0.00 0.00 0.00
0.05 0.09 0.12 0.07 0.07 0.05 0.03 0.02 0.02 0.04 0.09 0.09 0.04 0.00 0.00 0.01 0.01 0.00 0.00 0.00 0.01 0.02 0.06 0.07 0.02 0.01 0.00 0.00 0.00 0.00 0.00 0.00 0.00 0.00 0.00 0.00 0.00 0.00 0.00 0.00 0.00 0.00 0.00 0.00
0.09 0.15 0.16 0.15 0.09 0.08 0.08 0.02 0.02 0.01 0.05 0.16 0.05 0.01 0.00 0.00 0.02 0.05 0.02 0.01 0.01 0.05 0.16 0.13 0.05 0.01 0.02 0.02 0.01 0.00 0.00 0.00 0.00 0.00 0.00 0.00 0.00 0.00 0.00 0.00 0.00 0.00 0.00 0.00
0.19 0.23 0.20 0.16 0.15 0.13 0.08 0.05 0.25 0.06 0.06 0.19 0.12 0.03 0.02 0.03 0.04 0.08 0.12 0.07 0.06 0.11 0.21 0.14 0.06 0.04 0.10 0.08 0.01 0.00 0.00 0.00 0.00 0.00 0.00 0.00 0.00 0.00 0.00 0.00 0.00 0.00 0.00 0.00
0.22 0.14 0.12 0.15 0.16 0.17 0.09 0.03 0.15 0.21 0.22 0.26 0.26 0.14 0.16 0.20 0.21 0.20 0.17 0.27 0.20 0.23 0.20 0.14 0.06 0.08 0.16 0.12 0.00 0.00 0.00 0.00 0.00 0.00 0.00 0.00 0.00 0.00 0.00 0.00 0.00 0.00 0.00 0.00
0.09 0.06 0.07 0.07 0.03 0.05 0.05 0.19 0.30 0.24 0.37 0.37 0.22 0.30 0.32 0.36 0.49 0.28 0.51 0.31 0.47 0.24 0.22 0.11 0.16 0.15 0.13 0.02 0.00 0.00 0.00 0.00 0.00 0.00 0.00 0.00 0.00 0.00 0.00 0.00 0.00 0.00 0.00 0.00
0.16 0.11 0.11 0.09 0.04 0.12 0.25 0.46 0.54 0.47 0.38 0.25 0.15 0.21 0.45 0.44 0.49 0.45 0.66 0.47 0.31 0.30 0.13 0.18 0.23 0.09 0.03 0.01 0.00 0.00 0.00 0.00 0.00 0.00 0.00 0.00 0.00 0.00 0.00 0.00 0.00 0.00 0.00 0.00
0.12 0.10 0.09 0.04 0.07 0.28 0.43 0.50 0.38 0.27 0.16 0.07 0.05 0.08 0.31 0.52 0.65 0.58 0.42 0.63 0.35 0.20 0.17 0.31 0.22 0.13 0.05 0.01 0.00 0.00 0.00 0.00 0.00 0.00 0.00 0.00 0.00 0.00 0.00 0.00 0.00 0.00 0.00 0.00
0.12 0.09 0.06 0.03 0.08 0.28 0.37 0.32 0.19 0.18 0.04 0.07 0.12 0.22 0.31 0.43 0.53 0.45 0.54 0.41 0.52 0.28 0.30 0.35 0.11 0.04 0.00 0.00 0.00 0.00 0.00 0.00 0.00 0.00 0.00 0.00 0.00 0.00 0.00 0.00 0.00 0.00 0.00 0.00
0.06 0.03 0.06 0.09 0.13 0.24 0.21 0.13 0.14 0.08 0.10 0.15 0.24 0.41 0.35 0.36 0.41 0.27 0.27 0.35 0.28 0.31 0.35 0.19 0.08 0.05 0.02 0.00 0.00 0.00 0.00 0.00 0.00 0.00 0.00 0.00 0.01 0.00 0.00 0.00 0.01 0.02 0.02 0.02
0.05 0.02 0.03 0.06 0.11 0.05 0.06 0.03 0.08 0.09 0.03 0.10 0.26 0.29 0.22 0.25 0.34 0.26 0.19 0.14 0.15 0.20 0.18 0.10 0.11 0.23 0.16 0.09 0.06 0.06 0.06 0.08 0.04 0.03 0.03 0.11 0.06 0.02 0.01 0.01 0.03 0.05 0.02 0.01
0.05 0.02 0.02 0.01 0.01 0.03 0.04 0.04 0.02 0.02 0.03 0.08 0.12 0.14 0.10 0.09 0.14 0.11 0.14 0.12 0.06 0.04 0.09 0.03 0.04 0.31 0.16 0.18 0.26 0.31 0.49 0.58 0.38 0.23 0.22 0.22 0.15 0.12 0.10 0.06 0.05 0.03 0.03 0.02
0.01 0.01 0.01 0.01 0.01 0.00 0.01 0.02 0.03 0.03 0.05 0.16 0.21 0.11 0.07 0.03 0.03 0.07 0.04 0.06 0.14 0.10 0.02 0.00 0.00 0.02 0.02 0.03 0.09 0.16 0.30 0.41 0.44 0.28 0.22 0.28 0.33 0.32 0.28 0.18 0.17 0.15 0.13 0.09
0.00 0.00 0.00 0.00 0.00 0.00 0.00 0.01 0.02 0.01 0.04 0.14 0.34 0.31 0.07 0.06 0.08 0.02 0.01 0.06 0.11 0.05 0.00 0.00 0.00 0.00 0.00 0.00 0.00 0.00 0.00 0.01 0.07 0.06 0.05 0.06 0.11 0.23 0.24 0.17 0.22 0.26 0.25 0.12